Location: Shenandoah County Park
(38.9356°N, 78.4524°W)
Time: 00:22:51
(UTC-05:00)

S-56A Canister/Altair - Visible Passes

Search period start: 06 February 2023 00:00
Search period end: 16 February 2023 00:00
Orbit: 639 x 2493 km, 38.9° (Epoch: 05 February)

Date Brightness Start Highest point End Pass type
(mag) Time Alt. Az. Time Alt. Az. Time Alt. Az.
11 Feb 10.4 06:18:57 10° S 06:21:23 13° SSE 06:23:35 10° ESE visible
12 Feb 10.5 05:46:50 10° SSE 05:48:41 11° SSE 05:50:25 10° SE visible
13 Feb 10.7 05:15:13 10° SSE 05:15:58 10° SSE 05:16:42 10° SE visible
15 Feb 9.4 06:08:20 10° SSW 06:14:20 31° SSE 06:18:52 10° E visible
